Location: Cactus School
(34.5700°N, 118.0931°W)
Time: 23:51:42
(UTC-07:00)

Vanguard 2 - Pass Details

Date: 30 April 2024
Orbit: 553 x 2914 km, 32.9° (Epoch: 18 May)

Event Time Altitude Azimuth Distance (km) Brightness Sun altitude
Exits shadow 00:27:02 56° 99° (E) 2,578 9.8 -40.2°
Drops below altitude 10° 00:39:22 10° 84° (E) 5,523 11.9 -40.4°
Sets 00:44:05 0° 83° (E) 6,686 12.4 -40.5°
